Voltar ao catálogo

BREEZE-M DEB

TANK

AtivoHEO
NORAD 39362·DEBRIS·🇷🇺 Russia

Lançado Oct 25, 2013 de Baikonur Cosmodrome

Loading…

Próximas Passagens (próximas 24 horas)

TLE

AtualizadoSource: Space-Track

Época: Sep 14, 2026, 05:42 UTC

1 39362U 13058C   26257.23805696  .00002020  00000-0  37241-3 0  9995
2 39362  49.5186 216.6533 5127561 260.1089  40.8481  5.40135945248338

Acompanhe BREEZE-M DEB em tempo real com AllMySat

Download on the App Store